Simultaneous Nadir Overpasses (SNOs) Predictions

Prediction of SNOs between GOES-17 and METOP-C Satellite Orbit:

Table of predicted SNOs for the next 14.0 days since TLE Epoch: 1/10/2025
Index Date Time (GOES-17) GOES-17 Lat,Lon METOP-C Lat,Lon Distance(km) Time Diff (sec)
1 01/12/2025 04:42:36 0.00,-104.67 -0.64,-107.43 314.98 80
2 01/13/2025 04:19:18 -0.01,-104.67 0.48,-102.44 253.85 80
3 01/14/2025 16:38:11 0.01,-104.69 0.52,-107.01 263.54 80
4 01/15/2025 16:20:13 0.02,-104.70 -0.61,-102.02 306.31 80
5 01/17/2025 04:39:13 -0.02,-104.70 -0.46,-106.61 218.46 80
6 01/18/2025 04:15:54 -0.03,-104.70 0.67,-101.62 351.03 80
7 01/19/2025 16:34:47 0.03,-104.73 0.37,-106.18 166.18 80
8 01/20/2025 16:16:48 0.03,-104.74 -0.77,-101.20 404.00 80
9 01/22/2025 04:35:49 -0.03,-104.74 -0.23,-105.80 120.07 80
10 01/23/2025 04:12:30 -0.03,-104.74 0.85,-100.80 449.36 80
11 01/24/2025 16:31:22 0.03,-104.76 0.17,-105.36 68.74 80
